This demonstration page uses our WeatherBlox Daily Observations layout. Learn more.

38.88101, -77.10428

Hourly Observations for March 29, 2017

Temp ( °F °C ) Dew Point ( °F °C ) Humidity (%) Winds ( mph kmh ) Pressure ( in mb ) Visibility ( mi km ) Precip ( " mm )
12:52 am 00:52 Cloudy 62 16.7 54 12.2 75 75 N 8 13 29.97 1015 10 16.09344 0 0
1:52 am 01:52 Cloudy 62 16.7 53 11.7 73 73 NNE 12 19 29.97 1015 10 16.09344 0 0
2:03 am 02:03 Cloudy 61 16 54 12 77 77 N 8 13 29.97 1015 10 16.09344 0 0
2:52 am 02:52 Cloudy 59 15 56 13.3 90 90 NNW 8 13 29.97 1015 10 16.09344 0.001 0.001
3:14 am 03:14 Cloudy 59 15 57 14 94 94 NNW 9 15 30 1016 10 16.09344 0 0
3:52 am 03:52 Cloudy 59 15 56 13.3 90 90 N 8 13 29.97 1015 10 16.09344 0 0
4:16 am 04:16 Cloudy 59 15 55 13 88 88 N 7 11 30 1016 10 16.09344 0 0
4:25 am 04:25 Cloudy 59 15 54 12.2 83 83 NNW 10 17 30 1016 10 16.09344 0 0
4:33 am 04:33 Cloudy 59 15 53 11.7 81 81 NNW 10 17 30 1016 10 16.09344 0 0
4:52 am 04:52 Cloudy 59 15 53 11.7 81 81 N 9 15 29.97 1015 10 16.09344 0 0
5:52 am 05:52 Cloudy 58 14.4 52 11.1 81 81 NNE 12 19 30 1016 10 16.09344 0 0
6:52 am 06:52 Cloudy 57 13.9 48 8.9 72 72 NNE 12 19 30.03 1017 10 16.09344 0 0
7:52 am 07:52 Cloudy 56 13.3 46 7.8 70 70 N 13 20 30.06 1018 10 16.09344 0 0
8:52 am 08:52 Mostly Cloudy 56 13.3 45 7.2 67 67 N 12 19 30.09 1019 10 16.09344 0 0
9:52 am 09:52 Mostly Cloudy 56 13.3 43 6.1 62 62 N 14 22 30.12 1020 10 16.09344 0 0
10:52 am 10:52 Mostly Sunny 60 15.6 44 6.7 56 56 N 14 22 30.12 1020 10 16.09344 0 0
11:52 am 11:52 Mostly Sunny 61 16.1 42 5.6 50 50 N 10 17 30.12 1020 10 16.09344 0 0
12:52 pm 12:52 Mostly Sunny 62 16.7 39 3.9 43 43 NNW 10 17 30.12 1020 10 16.09344 0 0
1:52 pm 13:52 Mostly Sunny 64 17.8 40 4.4 41 41 NNW 15 24 30.09 1019 10 16.09344 0 0
2:52 pm 14:52 Mostly Sunny 66 18.9 39 3.9 37 37 N 12 19 30.09 1019 10 16.09344 0 0
3:52 pm 15:52 Mostly Sunny 66 18.9 37 2.8 34 34 N 10 17 30.06 1018 10 16.09344 0 0
4:52 pm 16:52 Mostly Sunny 67 19.4 36 2.2 32 32 NNE 7 11 30.06 1018 10 16.09344 0 0
5:52 pm 17:52 Mostly Sunny 66 18.9 37 2.8 34 34 NNE 10 17 30.09 1019 10 16.09344 0 0
6:52 pm 18:52 Mostly Sunny 63 17.2 40 4.4 43 43 NNE 12 19 30.09 1019 10 16.09344 0 0
7:52 pm 19:52 Partly Cloudy 61 16.1 38 3.3 43 43 NNE 13 20 30.12 1020 10 16.09344 0 0
8:52 pm 20:52 Mostly Clear 60 15.6 36 2.2 41 41 NE 12 19 30.15 1021 10 16.09344 0 0
9:52 pm 21:52 Mostly Clear 57 13.9 35 1.7 44 44 NE 13 20 30.18 1022 10 16.09344 0 0
10:52 pm 22:52 Clear 55 12.8 34 1.1 45 45 NE 10 17 30.18 1022 10 16.09344 0 0
11:52 pm 23:52 Mostly Clear 54 12.2 33 0.6 45 45 NE 10 17 30.18 1022 10 16.09344 0 0

Powered by AerisWeather